NJE676P LIRP-EDDG

Flight info

Callsign NJE676P
Flight time 1h 19m
Altitude 430
Route BEROK L153 OSBUL DCT MISPO DCT ABESI DCT LOKTA DCT TEDGO DCT HAREM DCT LOHRE Z850 ADEMI M170 HMM
Aircraft C750/M-SBDE3FGHRWXY/S

Departure

Time 2026-05-06 23:53
Airport Pisa International Airport (LIRP)

Arrival

Time 2026-05-07 01:12
Airport Münster Osnabrück Airport (EDDG)
Time Latitude Longitude Altitude Speed Heading
2026-05-06 23:30 43.69823 10.40289 12 ft 0 kts 189°
2026-05-06 23:46 43.69821 10.40288 12 ft 0 kts 193°
2026-05-06 23:46 43.69813 10.40269 12 ft 5 kts 246°
2026-05-06 23:46 43.69789 10.40223 12 ft 6 kts 205°
2026-05-06 23:47 43.69738 10.40208 12 ft 8 kts 199°
2026-05-06 23:47 43.69714 10.40150 12 ft 7 kts 251°
2026-05-06 23:47 43.69693 10.40089 12 ft 7 kts 245°
2026-05-06 23:47 43.69653 10.40054 12 ft 8 kts 175°
2026-05-06 23:48 43.69589 10.40067 12 ft 11 kts 171°
2026-05-06 23:48 43.69508 10.40084 13 ft 13 kts 172°
2026-05-06 23:48 43.69422 10.40100 18 ft 11 kts 173°
2026-05-06 23:48 43.69345 10.40097 19 ft 12 kts 202°
2026-05-06 23:49 43.69265 10.40014 19 ft 17 kts 218°
2026-05-06 23:49 43.69171 10.39918 19 ft 18 kts 216°
2026-05-06 23:49 43.69066 10.39808 16 ft 19 kts 217°
2026-05-06 23:49 43.68950 10.39689 15 ft 24 kts 217°
2026-05-06 23:50 43.68800 10.39534 14 ft 28 kts 217°
2026-05-06 23:50 43.68500 10.39226 14 ft 26 kts 216°
2026-05-06 23:50 43.68357 10.39080 13 ft 25 kts 216°
2026-05-06 23:51 43.68244 10.38967 10 ft 11 kts 201°
2026-05-06 23:51 43.68192 10.39024 11 ft 12 kts 124°
2026-05-06 23:51 43.68146 10.39115 12 ft 10 kts 127°
2026-05-06 23:51 43.68129 10.39170 12 ft 4 kts 56°
2026-05-06 23:52 43.68136 10.39179 13 ft 0 kts 37°
2026-05-06 23:52 43.68172 10.39215 13 ft 36 kts 37°
2026-05-06 23:52 43.68700 10.39761 17 ft 142 kts 37°
2026-05-06 23:52 43.69530 10.40596 551 ft 153 kts 37°
2026-05-06 23:53 43.70417 10.41513 1193 ft 172 kts 36°
2026-05-06 23:53 43.71438 10.42528 1886 ft 192 kts 28°
2026-05-06 23:53 43.72759 10.43176 2592 ft 208 kts
2026-05-06 23:53 43.74180 10.43232 3702 ft 204 kts 349°
2026-05-06 23:54 43.75547 10.42693 4689 ft 207 kts 334°
2026-05-06 23:54 43.76959 10.41937 5367 ft 230 kts 334°
2026-05-06 23:54 43.78547 10.41127 5939 ft 256 kts 335°
2026-05-06 23:54 43.80298 10.40224 6566 ft 277 kts 335°
2026-05-06 23:55 43.82108 10.39286 7645 ft 280 kts 335°
2026-05-06 23:55 43.83323 10.38653 8354 ft 284 kts 335°
2026-05-06 23:55 43.85195 10.37673 9419 ft 292 kts 335°
2026-05-06 23:55 43.87119 10.36666 10313 ft 302 kts 334°
2026-05-06 23:56 43.89213 10.35764 10610 ft 332 kts 346°
2026-05-06 23:56 43.91520 10.35418 11510 ft 334 kts 351°
2026-05-06 23:56 43.93846 10.35130 12429 ft 338 kts 350°
2026-05-06 23:56 43.96197 10.34752 13316 ft 342 kts 348°
2026-05-06 23:57 43.98565 10.34383 14193 ft 347 kts 351°
2026-05-06 23:57 44.01008 10.34469 14856 ft 354 kts 359°
2026-05-06 23:57 44.03491 10.34623 15514 ft 360 kts 358°
2026-05-06 23:57 44.06009 10.34722 16256 ft 363 kts 357°
2026-05-06 23:58 44.08557 10.34807 16944 ft 369 kts 358°
2026-05-06 23:58 44.11144 10.34922 17716 ft 375 kts 358°
2026-05-06 23:58 44.13774 10.35048 18441 ft 381 kts 358°
2026-05-06 23:58 44.16437 10.35153 19154 ft 385 kts 356°
2026-05-06 23:59 44.19123 10.34952 19850 ft 388 kts 351°
2026-05-06 23:59 44.21832 10.34686 20607 ft 393 kts 351°
2026-05-06 23:59 44.24582 10.34447 21333 ft 399 kts 351°
2026-05-06 23:59 44.27370 10.34219 22089 ft 404 kts 351°
2026-05-07 00:00 44.30194 10.33970 22788 ft 409 kts 351°
2026-05-07 00:00 44.33052 10.33708 23497 ft 414 kts 351°
2026-05-07 00:00 44.35948 10.33451 24084 ft 419 kts 351°
2026-05-07 00:00 44.38873 10.33198 24666 ft 424 kts 351°
2026-05-07 00:01 44.41827 10.32939 25279 ft 427 kts 350°
2026-05-07 00:01 44.44802 10.32673 25869 ft 431 kts 350°
2026-05-07 00:01 44.47810 10.32404 26461 ft 436 kts 350°
2026-05-07 00:01 44.50811 10.32138 27038 ft 440 kts 350°
2026-05-07 00:02 44.53882 10.31865 27635 ft 445 kts 349°
2026-05-07 00:02 44.56998 10.31586 28155 ft 452 kts 349°
2026-05-07 00:02 44.60147 10.31307 28789 ft 456 kts 349°
2026-05-07 00:02 44.63326 10.31026 29365 ft 460 kts 349°
2026-05-07 00:03 44.66538 10.30736 29956 ft 465 kts 349°
2026-05-07 00:03 44.69779 10.30445 30452 ft 469 kts 349°
2026-05-07 00:03 44.73051 10.30154 30966 ft 473 kts 350°
2026-05-07 00:03 44.76338 10.29848 31520 ft 473 kts 349°
2026-05-07 00:04 44.79564 10.29071 32010 ft 468 kts 339°
2026-05-07 00:04 44.82630 10.27660 32614 ft 461 kts 330°
2026-05-07 00:04 44.85483 10.25671 33070 ft 456 kts 322°
2026-05-07 00:04 44.88089 10.23168 33535 ft 452 kts 315°
2026-05-07 00:05 44.90609 10.20491 33990 ft 456 kts 315°
2026-05-07 00:05 44.93164 10.17806 34417 ft 459 kts 316°
2026-05-07 00:05 44.95720 10.15127 35006 ft 457 kts 316°
2026-05-07 00:05 44.98259 10.12441 35611 ft 455 kts 316°
2026-05-07 00:06 45.00782 10.09757 36214 ft 454 kts 316°
2026-05-07 00:06 45.03357 10.07163 36783 ft 457 kts 320°
2026-05-07 00:06 45.06047 10.04776 37404 ft 456 kts 321°
2026-05-07 00:06 45.08735 10.02412 38055 ft 454 kts 321°
2026-05-07 00:07 45.11399 10.00024 38685 ft 453 kts 321°
2026-05-07 00:07 45.14051 9.97624 39151 ft 452 kts 321°
2026-05-07 00:07 45.16708 9.95239 39624 ft 452 kts 322°
2026-05-07 00:07 45.19338 9.92893 40088 ft 452 kts 322°
2026-05-07 00:08 45.21995 9.90509 40565 ft 452 kts 322°
2026-05-07 00:08 45.24646 9.88117 41045 ft 452 kts 322°
2026-05-07 00:08 45.27296 9.85726 41521 ft 451 kts 323°
2026-05-07 00:08 45.29948 9.83339 41994 ft 451 kts 323°
2026-05-07 00:09 45.32598 9.80949 42495 ft 451 kts 323°
2026-05-07 00:09 45.35242 9.78558 42963 ft 451 kts 323°
2026-05-07 00:09 45.37917 9.76132 42977 ft 462 kts 323°
2026-05-07 00:09 45.40655 9.73651 42999 ft 472 kts 323°
2026-05-07 00:10 45.46304 9.68530 43051 ft 490 kts 323°
2026-05-07 00:10 45.52150 9.63210 43083 ft 506 kts 323°
2026-05-07 00:11 45.58154 9.57738 43081 ft 517 kts 324°
2026-05-07 00:11 45.64224 9.52190 43054 ft 518 kts 324°
2026-05-07 00:12 45.70296 9.46624 43031 ft 519 kts 324°
2026-05-07 00:12 45.76363 9.41049 42944 ft 517 kts 323°
2026-05-07 00:13 45.82427 9.35458 42957 ft 518 kts 324°
2026-05-07 00:13 45.88491 9.29859 42966 ft 518 kts 324°
2026-05-07 00:14 45.94508 9.24283 42963 ft 518 kts 324°
2026-05-07 00:14 46.00570 9.18655 42981 ft 519 kts 324°
2026-05-07 00:15 46.06638 9.13002 42970 ft 519 kts 324°
2026-05-07 00:15 46.12821 9.07644 42957 ft 522 kts 332°
2026-05-07 00:16 46.19809 9.04635 42954 ft 530 kts 349°
2026-05-07 00:16 46.27212 9.04491 42969 ft 535 kts
2026-05-07 00:17 46.34628 9.05667 42977 ft 536 kts
2026-05-07 00:17 46.42064 9.06033 42981 ft 534 kts 358°
2026-05-07 00:18 46.49488 9.06520 42974 ft 535 kts
2026-05-07 00:18 46.56917 9.07084 42973 ft 534 kts 359°
2026-05-07 00:19 46.64356 9.07521 42982 ft 537 kts
2026-05-07 00:19 46.71759 9.08096 42980 ft 536 kts
2026-05-07 00:20 46.79211 9.08550 42981 ft 536 kts
2026-05-07 00:20 46.86675 9.09108 42980 ft 538 kts
2026-05-07 00:21 46.94141 9.09593 42979 ft 538 kts
2026-05-07 00:21 47.01609 9.10130 42966 ft 537 kts
2026-05-07 00:22 47.09085 9.10638 42970 ft 537 kts
2026-05-07 00:22 47.16565 9.11164 42972 ft 539 kts
2026-05-07 00:23 47.24039 9.11684 42975 ft 536 kts
2026-05-07 00:23 47.31505 9.12207 42968 ft 537 kts
2026-05-07 00:24 47.38968 9.12731 42967 ft 537 kts
2026-05-07 00:24 47.46433 9.13257 42960 ft 538 kts
2026-05-07 00:25 47.53899 9.13784 42956 ft 537 kts
2026-05-07 00:25 47.61365 9.14313 42952 ft 537 kts
2026-05-07 00:26 47.68828 9.14844 42951 ft 536 kts
2026-05-07 00:26 47.76277 9.15374 42948 ft 536 kts
2026-05-07 00:27 47.83735 9.15907 42953 ft 537 kts
2026-05-07 00:27 47.91189 9.16440 42951 ft 536 kts
2026-05-07 00:28 47.98637 9.16976 42945 ft 536 kts
2026-05-07 00:28 48.06091 9.17513 42939 ft 536 kts
2026-05-07 00:29 48.13539 9.18052 42929 ft 536 kts
2026-05-07 00:30 48.28348 9.20277 42913 ft 537 kts
2026-05-07 00:30 48.35773 9.21469 42906 ft 537 kts
2026-05-07 00:31 48.43186 9.22762 42907 ft 536 kts
2026-05-07 00:31 48.50615 9.24000 42907 ft 537 kts
2026-05-07 00:32 48.58034 9.25275 42882 ft 537 kts
2026-05-07 00:32 48.65461 9.26512 42884 ft 537 kts
2026-05-07 00:33 48.72887 9.27579 42888 ft 535 kts
2026-05-07 00:33 48.80299 9.28755 42886 ft 536 kts
2026-05-07 00:34 48.87718 9.29869 42888 ft 535 kts
2026-05-07 00:34 48.95131 9.31024 42891 ft 535 kts
2026-05-07 00:35 49.02536 9.32161 42898 ft 535 kts
2026-05-07 00:35 49.09944 9.33310 42898 ft 535 kts
2026-05-07 00:36 49.17352 9.34461 42889 ft 535 kts
2026-05-07 00:36 49.24755 9.35613 42894 ft 535 kts
2026-05-07 00:37 49.32155 9.36771 42889 ft 533 kts
2026-05-07 00:37 49.39541 9.37928 42894 ft 533 kts
2026-05-07 00:38 49.46926 9.39090 42893 ft 533 kts
2026-05-07 00:38 49.54264 9.40247 42893 ft 534 kts
2026-05-07 00:39 49.61726 9.41427 42884 ft 536 kts
2026-05-07 00:39 49.69087 9.42598 42888 ft 535 kts
2026-05-07 00:40 49.76502 9.43782 42880 ft 536 kts
2026-05-07 00:40 49.83917 9.44969 42896 ft 536 kts
2026-05-07 00:41 49.91342 9.46161 42885 ft 536 kts
2026-05-07 00:41 49.98763 9.47290 42866 ft 535 kts
2026-05-07 00:42 50.06115 9.46211 42870 ft 529 kts 344°
2026-05-07 00:42 50.12890 9.41951 42870 ft 525 kts 327°
2026-05-07 00:43 50.18588 9.34992 42882 ft 520 kts 314°
2026-05-07 00:43 50.23709 9.27022 42884 ft 520 kts 313°
2026-05-07 00:44 50.29288 9.19799 42891 ft 522 kts 321°
2026-05-07 00:44 50.35027 9.12860 42883 ft 521 kts 317°
2026-05-07 00:45 50.40541 9.05496 42881 ft 521 kts 319°
2026-05-07 00:45 50.46205 8.98457 42614 ft 510 kts 318°
2026-05-07 00:46 50.48881 8.94929 41950 ft 495 kts 317°
2026-05-07 00:46 50.50609 8.92639 41536 ft 487 kts 317°
2026-05-07 00:46 50.53204 8.89324 40915 ft 476 kts 320°
2026-05-07 00:46 50.55829 8.86244 40322 ft 466 kts 321°
2026-05-07 00:47 50.58406 8.83188 39722 ft 462 kts 320°
2026-05-07 00:47 50.60949 8.80098 39123 ft 463 kts 319°
2026-05-07 00:47 50.63515 8.76983 38502 ft 466 kts 320°
2026-05-07 00:47 50.66099 8.73891 37835 ft 467 kts 320°
2026-05-07 00:48 50.68687 8.70793 37223 ft 467 kts 320°
2026-05-07 00:48 50.71268 8.67669 36606 ft 467 kts 320°
2026-05-07 00:48 50.73841 8.64545 35994 ft 467 kts 320°
2026-05-07 00:48 50.76418 8.61426 35391 ft 467 kts 321°
2026-05-07 00:49 50.78998 8.58307 34777 ft 466 kts 321°
2026-05-07 00:49 50.81570 8.55184 34166 ft 466 kts 321°
2026-05-07 00:49 50.84133 8.52063 33608 ft 465 kts 321°
2026-05-07 00:49 50.86697 8.48941 32997 ft 466 kts 321°
2026-05-07 00:50 50.89262 8.45817 32387 ft 463 kts 321°
2026-05-07 00:50 50.91813 8.42704 31772 ft 463 kts 321°
2026-05-07 00:50 50.94366 8.39580 31160 ft 464 kts 321°
2026-05-07 00:50 50.96921 8.36450 30547 ft 465 kts 321°
2026-05-07 00:51 50.99441 8.33361 29938 ft 461 kts 321°
2026-05-07 00:51 51.02033 8.30311 29277 ft 456 kts 326°
2026-05-07 00:51 51.04738 8.27838 28709 ft 454 kts 329°
2026-05-07 00:51 51.07507 8.25442 28118 ft 451 kts 330°
2026-05-07 00:52 51.10241 8.23037 27531 ft 447 kts 329°
2026-05-07 00:52 51.12931 8.20603 26941 ft 443 kts 329°
2026-05-07 00:52 51.15605 8.18196 26371 ft 440 kts 329°
2026-05-07 00:52 51.18266 8.15841 25797 ft 436 kts 329°
2026-05-07 00:53 51.20907 8.13497 25230 ft 433 kts 329°
2026-05-07 00:53 51.23520 8.11149 24672 ft 429 kts 329°
2026-05-07 00:53 51.26101 8.08825 24106 ft 424 kts 329°
2026-05-07 00:53 51.28662 8.06530 23552 ft 421 kts 329°
2026-05-07 00:54 51.31206 8.04251 22954 ft 417 kts 329°
2026-05-07 00:54 51.33724 8.01984 22419 ft 414 kts 329°
2026-05-07 00:54 51.36220 7.99732 21875 ft 410 kts 329°
2026-05-07 00:54 51.38696 7.97499 21348 ft 407 kts 329°
2026-05-07 00:55 51.41146 7.95288 20808 ft 403 kts 329°
2026-05-07 00:55 51.43582 7.93091 20282 ft 400 kts 329°
2026-05-07 00:55 51.45999 7.90918 19754 ft 396 kts 329°
2026-05-07 00:55 51.48421 7.88851 19225 ft 394 kts 334°
2026-05-07 00:56 51.51016 7.87488 18724 ft 392 kts 342°
2026-05-07 00:56 51.53626 7.86307 18214 ft 389 kts 343°
2026-05-07 00:56 51.56200 7.85107 17670 ft 380 kts 342°
2026-05-07 00:56 51.58724 7.83862 17170 ft 378 kts 341°
2026-05-07 00:57 51.61229 7.82637 16673 ft 375 kts 342°
2026-05-07 00:57 51.63719 7.81454 16180 ft 371 kts 342°
2026-05-07 00:57 51.66193 7.80275 15692 ft 369 kts 342°
2026-05-07 00:57 51.68635 7.79091 15209 ft 366 kts 342°
2026-05-07 00:58 51.71060 7.77914 14728 ft 362 kts 342°
2026-05-07 00:58 51.73468 7.76753 14253 ft 360 kts 342°
2026-05-07 00:58 51.75857 7.75601 13782 ft 358 kts 342°
2026-05-07 00:58 51.78229 7.74451 13287 ft 353 kts 342°
2026-05-07 00:59 51.82872 7.72116 12339 ft 346 kts 338°
2026-05-07 00:59 51.84864 7.69954 11873 ft 342 kts 318°
2026-05-07 00:59 51.86315 7.66870 11423 ft 347 kts 299°
2026-05-07 01:00 51.87137 7.63302 11005 ft 334 kts 288°
2026-05-07 01:00 51.87773 7.59831 10593 ft 311 kts 288°
2026-05-07 01:00 51.88375 7.56583 10191 ft 295 kts 289°
2026-05-07 01:00 51.88975 7.53447 9801 ft 289 kts 289°
2026-05-07 01:01 51.89564 7.50346 9403 ft 286 kts 289°
2026-05-07 01:01 51.90137 7.47280 9021 ft 283 kts 289°
2026-05-07 01:01 51.90706 7.44237 8651 ft 281 kts 289°
2026-05-07 01:01 51.91273 7.41214 8280 ft 279 kts 289°
2026-05-07 01:02 51.91834 7.38216 7909 ft 277 kts 289°
2026-05-07 01:02 51.92389 7.35243 7546 ft 275 kts 289°
2026-05-07 01:02 51.92940 7.32286 7173 ft 273 kts 289°
2026-05-07 01:02 51.93483 7.29367 6830 ft 269 kts 289°
2026-05-07 01:03 51.94023 7.26467 6523 ft 269 kts 289°
2026-05-07 01:03 51.94560 7.23570 6166 ft 268 kts 289°
2026-05-07 01:03 51.95094 7.20686 5810 ft 267 kts 289°
2026-05-07 01:03 51.95818 7.17951 5394 ft 263 kts 307°
2026-05-07 01:04 51.97167 7.16036 5066 ft 257 kts 332°
2026-05-07 01:04 51.98849 7.15251 4989 ft 253 kts 355°
2026-05-07 01:04 52.00581 7.15661 4991 ft 254 kts 20°
2026-05-07 01:04 52.02078 7.17165 5002 ft 256 kts 38°
2026-05-07 01:05 52.03099 7.19525 4997 ft 259 kts 63°
2026-05-07 01:05 52.03709 7.22294 5021 ft 261 kts 70°
2026-05-07 01:05 52.04277 7.25090 5014 ft 261 kts 69°
2026-05-07 01:05 52.04865 7.27875 5012 ft 260 kts 69°
2026-05-07 01:06 52.05451 7.30645 4866 ft 254 kts 69°
2026-05-07 01:06 52.06008 7.33283 4539 ft 240 kts 69°
2026-05-07 01:06 52.06535 7.35783 4208 ft 228 kts 69°
2026-05-07 01:06 52.07038 7.38169 3911 ft 219 kts 69°
2026-05-07 01:07 52.07515 7.40430 3624 ft 210 kts 69°
2026-05-07 01:07 52.07987 7.42669 3342 ft 203 kts 68°
2026-05-07 01:07 52.08434 7.44774 3071 ft 197 kts 68°
2026-05-07 01:07 52.08878 7.46849 2809 ft 192 kts 68°
2026-05-07 01:08 52.09297 7.48837 2545 ft 180 kts 68°
2026-05-07 01:08 52.09694 7.50709 2299 ft 170 kts 67°
2026-05-07 01:08 52.10066 7.52454 2054 ft 152 kts 68°
2026-05-07 01:08 52.10379 7.53941 1853 ft 127 kts 66°
2026-05-07 01:09 52.10648 7.55207 1707 ft 111 kts 67°
2026-05-07 01:09 52.10891 7.56342 1554 ft 104 kts 66°
2026-05-07 01:09 52.11126 7.57457 1418 ft 105 kts 66°
2026-05-07 01:09 52.11365 7.58588 1287 ft 107 kts 66°
2026-05-07 01:10 52.11612 7.59756 1136 ft 111 kts 66°
2026-05-07 01:10 52.11874 7.60970 966 ft 116 kts 67°
2026-05-07 01:10 52.12134 7.62229 797 ft 119 kts 69°
2026-05-07 01:10 52.12404 7.63512 643 ft 121 kts 68°
2026-05-07 01:11 52.12687 7.64812 481 ft 123 kts 69°
2026-05-07 01:11 52.12971 7.66142 317 ft 125 kts 69°
2026-05-07 01:11 52.13247 7.67453 168 ft 117 kts 68°
2026-05-07 01:11 52.13475 7.68529 164 ft 74 kts 73°
2026-05-07 01:12 52.13588 7.69070 166 ft 37 kts 71°
2026-05-07 01:12 52.13670 7.69453 166 ft 34 kts 70°
2026-05-07 01:12 52.13745 7.69807 164 ft 32 kts 71°
2026-05-07 01:12 52.13761 7.70002 164 ft 11 kts 139°
2026-05-07 01:13 52.13687 7.70040 164 ft 11 kts 164°
2026-05-07 01:13 52.13617 7.69998 164 ft 12 kts 226°
2026-05-07 01:13 52.13584 7.69877 164 ft 12 kts 251°
2026-05-07 01:13 52.13557 7.69750 164 ft 13 kts 251°
2026-05-07 01:14 52.13529 7.69617 164 ft 12 kts 251°
2026-05-07 01:14 52.13501 7.69488 164 ft 12 kts 251°
2026-05-07 01:14 52.13474 7.69361 164 ft 12 kts 251°
2026-05-07 01:14 52.13447 7.69233 164 ft 12 kts 251°
2026-05-07 01:15 52.13418 7.69098 164 ft 13 kts 251°
2026-05-07 01:15 52.13390 7.68956 164 ft 13 kts 252°
2026-05-07 01:15 52.13360 7.68813 164 ft 13 kts 251°
2026-05-07 01:15 52.13331 7.68673 164 ft 13 kts 251°
2026-05-07 01:16 52.13300 7.68529 164 ft 14 kts 250°
2026-05-07 01:16 52.13268 7.68385 164 ft 12 kts 251°
2026-05-07 01:16 52.13209 7.68344 164 ft 10 kts 160°
2026-05-07 01:16 52.13148 7.68380 164 ft 9 kts 160°
2026-05-07 01:17 52.13104 7.68360 164 ft 7 kts 257°
2026-05-07 01:17 52.13105 7.68314 164 ft 0 kts 271°